TimeMST,TemperatureF,Dew PointF,Humidity,Sea Level PressureIn,VisibilityMPH,Wind Direction,Wind SpeedMPH,Gust SpeedMPH,PrecipitationIn,Events,Conditions,WindDirDegrees,DateUTC
12:53 AM,35.1,28.0,76,30.18,10.0,Calm,Calm,-,N/A,,Overcast,0,2012-11-14 07:53:00
1:53 AM,34.0,28.0,79,30.18,10.0,Calm,Calm,-,N/A,,Overcast,0,2012-11-14 08:53:00
2:53 AM,36.0,28.0,73,30.17,10.0,SSE,5.8,-,N/A,,Overcast,150,2012-11-14 09:53:00
3:53 AM,37.0,27.0,67,30.15,10.0,ESE,5.8,-,N/A,,Overcast,120,2012-11-14 10:53:00
4:53 AM,37.0,30.0,76,30.18,10.0,Calm,Calm,-,0.00,Rain,Light Rain,0,2012-11-14 11:53:00
5:53 AM,37.0,32.0,82,30.21,9.0,Calm,Calm,-,0.00,Rain,Light Rain,0,2012-11-14 12:53:00
6:39 AM,35.6,32.0,87,30.22,4.0,SSW,3.5,-,0.02,Rain,Light Rain,200,2012-11-14 13:39:00
6:49 AM,37.4,32.0,81,30.22,7.0,SSW,5.8,-,0.02,Rain,Light Rain,210,2012-11-14 13:49:00
6:53 AM,37.9,32.0,79,30.22,8.0,SW,5.8,-,0.02,Rain,Light Rain,220,2012-11-14 13:53:00
7:39 AM,37.4,33.8,87,30.23,9.0,West,4.6,-,0.00,Rain,Light Rain,260,2012-11-14 14:39:00
7:53 AM,37.9,34.0,86,30.25,5.0,West,3.5,-,0.01,Rain,Light Rain,270,2012-11-14 14:53:00
8:53 AM,39.0,35.1,86,30.26,5.0,SW,3.5,-,0.01,Rain,Light Rain,230,2012-11-14 15:53:00
9:01 AM,39.2,35.6,87,30.24,6.0,Calm,Calm,-,0.00,Rain,Light Rain,0,2012-11-14 16:01:00
9:53 AM,41.0,35.1,79,30.25,10.0,SW,3.5,-,0.00,,Overcast,230,2012-11-14 16:53:00
10:53 AM,43.0,37.0,80,30.24,10.0,SW,6.9,-,0.00,Rain,Light Rain,230,2012-11-14 17:53:00
11:53 AM,44.1,37.9,79,30.24,8.0,SSW,6.9,-,0.00,Rain,Light Rain,210,2012-11-14 18:53:00
12:21 PM,44.6,37.4,76,30.24,10.0,SSW,5.8,-,0.00,Rain,Light Rain,210,2012-11-14 19:21:00
12:41 PM,44.6,37.4,76,30.24,10.0,SW,5.8,-,0.00,Rain,Light Rain,230,2012-11-14 19:41:00
12:53 PM,45.0,37.9,76,30.22,10.0,SW,6.9,-,0.00,Rain,Light Rain,230,2012-11-14 19:53:00
1:12 PM,44.6,37.4,76,30.24,10.0,West,4.6,-,0.00,Rain,Light Rain,270,2012-11-14 20:12:00
1:51 PM,44.6,39.2,81,30.24,9.0,NW,4.6,-,0.00,Rain,Light Rain,320,2012-11-14 20:51:00
1:53 PM,44.1,39.9,85,30.23,9.0,NNW,3.5,-,0.00,Rain,Light Rain,330,2012-11-14 20:53:00
1:59 PM,44.6,39.2,81,30.24,10.0,NW,5.8,-,0.00,Rain,Light Rain,310,2012-11-14 20:59:00
2:36 PM,44.6,39.2,81,30.23,6.0,WNW,5.8,-,0.00,,Overcast,290,2012-11-14 21:36:00
2:53 PM,44.1,39.9,85,30.22,10.0,WNW,5.8,-,0.00,,Overcast,290,2012-11-14 21:53:00
3:34 PM,44.6,39.2,81,30.24,10.0,WNW,5.8,-,N/A,,Overcast,290,2012-11-14 22:34:00
3:53 PM,45.0,39.0,80,30.22,10.0,West,4.6,-,N/A,,Overcast,270,2012-11-14 22:53:00
4:53 PM,44.1,37.9,79,30.22,10.0,NW,3.5,-,N/A,,Overcast,320,2012-11-14 23:53:00
5:53 PM,42.1,37.9,85,30.23,8.0,Calm,Calm,-,N/A,,Overcast,0,2012-11-15 00:53:00
6:12 PM,42.8,37.4,81,30.26,7.0,Calm,Calm,-,N/A,,Overcast,0,2012-11-15 01:12:00
6:21 PM,42.8,37.4,81,30.26,7.0,Calm,Calm,-,N/A,,Overcast,0,2012-11-15 01:21:00
6:53 PM,42.1,37.9,85,30.26,6.0,WNW,4.6,-,N/A,,Overcast,300,2012-11-15 01:53:00
7:10 PM,41.0,37.4,87,30.28,1.5,NNW,5.8,-,N/A,,Overcast,330,2012-11-15 02:10:00
7:20 PM,41.0,37.4,87,30.28,0.5,NW,5.8,-,N/A,Fog,Fog,320,2012-11-15 02:20:00
7:29 PM,39.2,37.4,93,30.28,0.2,NW,3.5,-,N/A,Fog,Fog,310,2012-11-15 02:29:00
7:45 PM,41.0,37.4,87,30.28,0.5,WNW,3.5,-,N/A,Fog,Fog,300,2012-11-15 02:45:00
7:53 PM,39.9,37.9,93,30.27,0.2,NW,4.6,-,N/A,Fog,Fog,320,2012-11-15 02:53:00
8:53 PM,39.0,37.0,93,30.27,0.2,NNW,5.8,-,N/A,Fog,Fog,330,2012-11-15 03:53:00
9:16 PM,39.2,35.6,87,30.29,0.2,NW,6.9,-,N/A,Fog,Fog,320,2012-11-15 04:16:00
9:27 PM,39.2,35.6,87,30.29,0.2,NW,8.1,-,N/A,Fog,Fog,320,2012-11-15 04:27:00
9:53 PM,39.0,36.0,89,30.29,0.2,NNW,5.8,-,0.01,Fog,Fog,340,2012-11-15 04:53:00
10:53 PM,39.0,36.0,89,30.29,0.2,North,3.5,-,N/A,Fog,Fog,350,2012-11-15 05:53:00
11:33 PM,39.2,35.6,87,30.31,0.2,NNW,4.6,-,N/A,Fog,Fog,340,2012-11-15 06:33:00
11:53 PM,39.0,36.0,89,30.28,0.2,North,4.6,-,N/A,Fog,Fog,360,2012-11-15 06:53:00